Location: Ostrava
(49.8330°N, 18.2830°E)
Time: 21:22:12
(UTC+02:00)

Daily predictions for brighter satellites

Satellite Brightness Start Highest point End
(mag) Time Altitude Azimuth Time Altitude Azimuth Time Altitude Azimuth
NOSS 3-2 (A) 4.4 21:28:19 10° NW 21:35:27 57° NE 21:43:22 10° ESE
Cosmos 2278 Rocket 4.0 21:38:11 10° ESE 21:40:22 12° E 21:42:34 10° ENE
APEX 4.5 21:38:14 10° N 21:40:34 21° NE 21:43:10 10° ESE
Landsat 7 4.5 21:36:54 10° SE 21:41:22 42° ENE 21:45:52 10° N
NOSS 2-3 (E) 4.1 21:38:13 10° SW 21:42:55 86° NW 21:48:39 10° NE
COSMOS 2406 3.6 21:37:23 10° NNW 21:43:06 57° NE 21:48:45 10° SE
DMSP B5D2-2 4.5 21:42:22 10° NNE 21:47:25 46° E 21:52:26 10° S
Cosmos 1300 4.4 21:45:41 10° NNE 21:48:38 21° ENE 21:51:34 10° ESE
Helios 1B rocket 3.7 21:45:37 10° NE 21:48:57 23° E 21:52:16 10° SSE
Cosmos 1269 Rocket 4.2 21:44:37 10° S 21:49:46 54° ESE 21:54:57 10° NNE
BREEZE-M R/B 4.4 21:42:22 10° W 21:50:57 86° N 21:56:40 10° E
Cosmos 1331 Rocket 4.2 21:46:20 10° NNW 21:51:32 66° ENE 21:56:43 10° SSE
ATLAS 2AS CENTAUR R/B 3.3 21:46:02 10° S 21:53:27 48° ESE 22:01:08 10° NE
Cosmos 1674 3.2 21:50:04 10° SSE 21:53:41 42° E 21:57:20 10° NNE
ARGOS 3.9 21:49:12 10° S 21:54:30 54° W 21:59:51 10° NNW
CSL-04 DEB 4.4 21:52:21 10° SSE 21:56:17 79° WSW 22:00:14 10° NNW
Cosmos 2221 4.0 21:54:28 10° NNE 21:58:03 24° ENE 22:01:36 10° ESE
NOSS 3-2 (C) 4.4 21:51:56 10° NW 21:59:05 58° NE 22:07:03 10° ESE
Cosmos 1825 Rocket 4.2 21:55:34 10° SSW 21:59:59 62° WNW 22:04:26 10° N
Cosmos 724 4.5 21:54:29 10° NW 22:00:30 77° SW 22:06:35 10° SSE
Terra 2.5 21:56:15 10° SE 22:00:43 43° ENE 22:05:14 10° N
Cosmos 1844 4.3 21:55:29 10° S 22:00:44 39° ESE 22:06:03 10° NE
Meteor 1-24 Rocket 3.9 21:58:15 10° S 22:04:18 86° E 22:10:21 10° NNE
Cosmos 1437 3.5 22:01:17 10° NNW 22:04:22 48° W 22:07:26 10° S
Cosmos 1844 Rocket 2.9 21:59:31 10° S 22:05:00 53° ESE 22:10:30 10° NE
Cosmos 494 Rocket 4.4 22:00:17 10° S 22:05:14 43° ESE 22:10:12 10° NE
Cosmos 921 Rocket 3.2 22:00:51 10° NNW 22:05:20 83° WSW 22:09:50 10° SSE
NOSS 8 (A) 4.2 22:03:44 10° SSW 22:06:53 66° SE 22:10:10 10° NE
Cosmos 1346 Rocket 3.5 22:09:01 10° NNW 22:12:54 52° W 22:16:49 10° S
Meteor 2-5 Rocket 4.5 22:07:11 10° SSW 22:13:03 59° WNW 22:18:54 10° N
CZ-2C R/B 3.7 22:09:33 11° SE 22:15:04 54° ENE 22:20:39 10° N
Cosmos 1726 2.1 22:11:20 10° N 22:15:07 80° E 22:18:38 12° SSE
SL-14 R/B 4.4 22:13:56 12° SE 22:16:48 27° E 22:20:09 10° NNE
Cosmos 1302 Rocket 4.2 22:12:29 10° NNW 22:17:46 64° ENE 22:22:29 13° SE
Cosmos 1553 Rocket 4.0 22:11:59 10° S 22:17:59 68° E 22:24:02 10° NNE
Cosmos 2251 Rocket 4.3 22:17:57 11° SSE 22:22:34 33° ESE 22:27:18 10° NE
Cosmos 2082 Rocket 3.5 22:17:38 10° NNW 22:22:48 33° NE 22:27:54 10° ESE
SPOT 5 3.4 22:22:37 10° S 22:27:38 65° WSW 22:32:54 10° NNW
ATLAS 5 CENTAUR R/B 3.7 22:27:22 10° ESE 22:28:14 11° ESE 22:29:23 10° E
CARTOSAT-1 3.6 22:24:35 13° SSE 22:28:28 84° ENE 22:32:49 10° NNW
BREEZE-M DEB (TANK) 3.0 22:22:53 10° SW 22:29:26 47° SSE 22:32:06 10° E
Cosmos 1833 Rocket 3.7 22:25:37 10° NNW 22:30:53 39° NE 22:36:07 10° ESE
KORONAS-FOTON 3.8 22:27:28 10° S 22:31:22 87° E 22:35:20 10° N
ERS-1 Rocket 4.1 22:28:00 10° SSW 22:32:42 39° W 22:37:26 10° NNW
Cosmos 2263 Rocket 4.3 22:31:08 10° WSW 22:36:07 30° NW 22:41:06 10° NNE
CENTAUR R/B 3.6 22:28:50 10° NW 22:36:18 55° NE 22:44:32 10° ESE
YAOGAN 11 4.3 22:32:49 15° SSE 22:36:35 66° ENE 22:41:07 10° N
Lacrosse 5 1.8 22:31:48 10° SW 22:36:51 75° SE 22:41:56 10° ENE
Cosmos 1238 Rocket 4.3 22:34:55 10° SW 22:37:26 25° WNW 22:40:02 10° NNW
Cosmos 1386 Rocket 4.4 22:32:58 10° N 22:39:08 83° E 22:44:26 14° SSE
Cosmos 1461 4.4 22:37:48 16° SSE 22:40:09 23° ESE 22:43:53 10° ENE
Cosmos 220 Rocket 4.3 22:37:30 12° S 22:41:09 47° ESE 22:45:13 10° NE
CZ-2C R/B 3.2 22:40:38 10° NNE 22:45:50 42° E 22:49:46 16° SSE
IGS 5A 3.9 22:46:12 14° S 22:49:41 58° W 22:53:49 10° NNW
Iridium 67 4.1 22:48:15 10° NNE 22:49:38 25° ENE 22:49:38 25° ENE
Cosmos 1842 Rocket 3.9 22:46:36 10° NNW 22:50:53 60° W 22:54:33 14° S
Cosmos 1076 Rocket 4.1 22:54:25 19° SSE 22:57:00 40° E 23:01:00 10° NNE
SL-8 R/B 4.0 22:56:40 10° SW 23:01:12 42° SSE 23:05:46 10° E
Cosmos 807 4.4 23:02:46 17° SSW 23:04:54 64° WNW 23:08:08 10° N
Meteor 1-21 Rocket 4.4 23:00:12 10° SSW 23:06:05 85° W 23:11:56 10° NNE
Meteor 1-29 3.2 23:03:05 10° N 23:06:29 67° WNW 23:09:18 14° SSW
H-2A R/B 4.1 23:05:30 10° E 23:08:10 17° ENE 23:10:50 10° NNE
Mayak 0.5 23:09:25 10° NE 23:12:20 18° E 23:13:53 15° ESE
Cosmos 1340 4.4 23:10:21 10° NW 23:13:34 26° W 23:16:38 11° SSW
Okean 3 Rocket 3.8 23:13:27 22° SSE 23:16:05 55° E 23:20:23 10° NNE
COBE Rocket 4.2 23:11:44 10° NNE 23:16:40 54° E 23:19:59 21° S
ATLAS 3B R/B 3.2 23:10:33 10° NW 23:16:48 45° WSW 23:21:19 18° S
H-2A R/B 4.5 23:13:58 10° WSW 23:16:52 15° W 23:19:48 10° NW
Cosmos 1626 2.1 23:16:59 24° S 23:19:05 70° E 23:22:49 10° NNE
Cosmos 1328 3.8 23:19:10 24° S 23:21:25 67° E 23:25:22 10° NNE
APEX 4.3 23:19:56 10° NW 23:22:30 26° WSW 23:23:58 19° SSW
Cosmos 2278 Rocket 2.2 23:18:15 12° SSW 23:23:24 72° ESE 23:29:06 10° NNE
Helios 1B rocket 3.7 23:20:32 10° N 23:24:23 39° WNW 23:28:11 10° SW
Cosmos 1455 2.6 23:20:44 10° N 23:24:25 49° ENE 23:26:18 25° SE
Cosmos 1300 3.9 23:20:55 10° NNW 23:24:28 36° W 23:27:02 16° SSW
NOSS 3-2 (A) 4.4 23:19:19 10° NW 23:26:30 51° WSW 23:32:14 19° S
NOSS 2-2 (C) 4.3 23:25:26 25° SSE 23:26:36 30° ESE 23:30:28 10° ENE
Cosmos 2221 3.5 23:31:44 10° NNW 23:35:46 39° W 23:38:40 17° SSW
Terra 3.4 23:34:57 12° SSW 23:38:38 27° W 23:42:42 10° NW
Cosmos 1328 Rocket 4.0 23:35:37 10° N 23:39:52 51° ENE 23:42:11 25° SE
Cosmos 1709 Rocket 4.4 23:35:21 10° NNW 23:41:29 58° W 23:46:02 18° SSW
ATLAS 2AS CENTAUR R/B 3.6 23:36:32 10° WSW 23:44:26 61° NW 23:52:30 10° NE
Cosmos 2058 3.6 23:44:07 26° SE 23:45:52 40° E 23:49:46 10° NNE
Cosmos 1844 Rocket 4.4 23:44:02 10° WSW 23:49:10 34° NW 23:54:17 10° NNE
NOSS 3-2 (C) 4.4 23:43:00 10° NW 23:50:09 50° WSW 23:55:26 21° S
Meteor 1-27 4.3 23:46:45 10° NNW 23:52:37 84° W 23:56:18 24° S
Meteor 2-10 Rocket 4.1 23:48:11 10° N 23:53:07 46° ENE 23:56:21 21° SE
Cosmos 2369 Rocket 4.2 23:53:34 10° ESE 23:55:41 12° E 23:57:57 10° ENE
